VJC383 VVPC-VVTS

Flight info

Callsign VJC383
Flight time 0h 43m
Altitude 30000
Route NOBID1K NOBID W12 BMT DCT DOVIN DOVIN5E
Aircraft A21N/M-SDE2E3FGHIRWXY/LB1

Departure

Time 2026-05-05 18:32
Airport Phu Cat Airport (VVPC)

Arrival

Time 2026-05-05 19:15
Airport Tan Son Nhat International Airport (VVTS)
Time Latitude Longitude Altitude Speed Heading
2026-05-05 18:02 13.95299 109.04787 99 ft 0 kts 57°
2026-05-05 18:25 13.95287 109.04765 96 ft 4 kts 68°
2026-05-05 18:25 13.95281 109.04748 93 ft 4 kts 82°
2026-05-05 18:25 13.95287 109.04715 93 ft 4 kts 138°
2026-05-05 18:25 13.95292 109.04711 93 ft 0 kts 147°
2026-05-05 18:28 13.95278 109.04720 94 ft 4 kts 147°
2026-05-05 18:28 13.95246 109.04740 97 ft 7 kts 165°
2026-05-05 18:28 13.95196 109.04711 96 ft 10 kts 198°
2026-05-05 18:29 13.95130 109.04742 101 ft 12 kts 147°
2026-05-05 18:29 13.95057 109.04791 100 ft 13 kts 147°
2026-05-05 18:29 13.94977 109.04846 99 ft 15 kts 146°
2026-05-05 18:29 13.94888 109.04907 101 ft 16 kts 146°
2026-05-05 18:30 13.94791 109.04973 94 ft 17 kts 147°
2026-05-05 18:30 13.94689 109.05042 96 ft 18 kts 147°
2026-05-05 18:30 13.94577 109.05117 96 ft 20 kts 147°
2026-05-05 18:30 13.94455 109.05155 96 ft 21 kts 238°
2026-05-05 18:31 13.94380 109.05025 95 ft 17 kts 239°
2026-05-05 18:31 13.94432 109.04947 96 ft 18 kts 327°
2026-05-05 18:31 13.94721 109.04753 94 ft 88 kts 327°
2026-05-05 18:31 13.95418 109.04283 96 ft 152 kts 327°
2026-05-05 18:32 13.96388 109.03617 419 ft 169 kts 326°
2026-05-05 18:32 13.97381 109.02939 1015 ft 175 kts 327°
2026-05-05 18:32 13.98409 109.02251 1638 ft 176 kts 327°
2026-05-05 18:32 13.99478 109.01534 2076 ft 192 kts 328°
2026-05-05 18:33 14.00640 109.00757 2572 ft 206 kts 327°
2026-05-05 18:33 14.01877 108.99914 3096 ft 221 kts 326°
2026-05-05 18:33 14.03051 108.98761 3425 ft 247 kts 306°
2026-05-05 18:33 14.03710 108.97072 3848 ft 269 kts 278°
2026-05-05 18:34 14.03639 108.95111 4493 ft 278 kts 262°
2026-05-05 18:34 14.03345 108.93129 5247 ft 282 kts 261°
2026-05-05 18:34 14.03051 108.91118 6022 ft 285 kts 262°
2026-05-05 18:34 14.02771 108.89086 6758 ft 287 kts 262°
2026-05-05 18:35 14.02491 108.87040 7482 ft 290 kts 259°
2026-05-05 18:35 14.01800 108.85094 8186 ft 292 kts 235°
2026-05-05 18:35 14.00332 108.83711 8859 ft 293 kts 207°
2026-05-05 18:35 13.98436 108.82932 9553 ft 295 kts 198°
2026-05-05 18:36 13.96472 108.82267 10142 ft 302 kts 198°
2026-05-05 18:36 13.94425 108.81560 10437 ft 318 kts 198°
2026-05-05 18:36 13.92276 108.80793 10682 ft 336 kts 199°
2026-05-05 18:36 13.90013 108.79967 10899 ft 353 kts 199°
2026-05-05 18:37 13.87637 108.79094 11156 ft 368 kts 199°
2026-05-05 18:37 13.85198 108.78192 11648 ft 374 kts 199°
2026-05-05 18:37 13.82770 108.77290 12235 ft 377 kts 199°
2026-05-05 18:37 13.80291 108.76369 12820 ft 380 kts 199°
2026-05-05 18:38 13.77795 108.75443 13412 ft 383 kts 199°
2026-05-05 18:38 13.75272 108.74508 13956 ft 386 kts 200°
2026-05-05 18:38 13.72737 108.73569 14487 ft 388 kts 200°
2026-05-05 18:38 13.70183 108.72621 14996 ft 391 kts 200°
2026-05-05 18:39 13.67605 108.71663 15512 ft 393 kts 200°
2026-05-05 18:39 13.65023 108.70707 16042 ft 396 kts 200°
2026-05-05 18:39 13.62425 108.69744 16566 ft 398 kts 200°
2026-05-05 18:39 13.59812 108.68775 17101 ft 400 kts 200°
2026-05-05 18:40 13.57213 108.67815 17585 ft 403 kts 200°
2026-05-05 18:40 13.54566 108.66836 18074 ft 406 kts 200°
2026-05-05 18:40 13.51892 108.65848 18490 ft 409 kts 200°
2026-05-05 18:40 13.49196 108.64849 18918 ft 411 kts 200°
2026-05-05 18:41 13.46493 108.63847 19296 ft 415 kts 200°
2026-05-05 18:41 13.43762 108.62837 19694 ft 418 kts 200°
2026-05-05 18:41 13.41018 108.61820 20091 ft 421 kts 200°
2026-05-05 18:41 13.38248 108.60795 20489 ft 424 kts 200°
2026-05-05 18:42 13.35496 108.59778 20870 ft 426 kts 200°
2026-05-05 18:42 13.32688 108.58725 21260 ft 429 kts 201°
2026-05-05 18:42 13.30013 108.57350 21632 ft 431 kts 212°
2026-05-05 18:42 13.27514 108.55625 22011 ft 434 kts 214°
2026-05-05 18:43 13.25037 108.53837 22376 ft 436 kts 215°
2026-05-05 18:43 13.22571 108.52055 22744 ft 439 kts 215°
2026-05-05 18:43 13.20048 108.50246 23120 ft 442 kts 214°
2026-05-05 18:43 13.17520 108.48442 23486 ft 444 kts 214°
2026-05-05 18:44 13.14970 108.46625 23788 ft 447 kts 214°
2026-05-05 18:44 13.12409 108.44801 24099 ft 449 kts 214°
2026-05-05 18:44 13.10710 108.43592 24308 ft 450 kts 214°
2026-05-05 18:44 13.08128 108.41755 24616 ft 452 kts 214°
2026-05-05 18:45 13.04685 108.39309 25009 ft 454 kts 214°
2026-05-05 18:45 13.02079 108.37456 25301 ft 457 kts 214°
2026-05-05 18:45 13.00338 108.36217 25497 ft 458 kts 214°
2026-05-05 18:45 12.97704 108.34345 25796 ft 459 kts 214°
2026-05-05 18:46 12.95067 108.32473 26083 ft 462 kts 214°
2026-05-05 18:46 12.92418 108.30591 26362 ft 464 kts 214°
2026-05-05 18:46 12.89792 108.28725 26704 ft 464 kts 215°
2026-05-05 18:46 12.87138 108.26839 27116 ft 463 kts 215°
2026-05-05 18:47 12.84492 108.24960 27455 ft 463 kts 215°
2026-05-05 18:47 12.81833 108.23075 27766 ft 464 kts 214°
2026-05-05 18:47 12.79170 108.21186 28108 ft 464 kts 214°
2026-05-05 18:47 12.76513 108.19302 28470 ft 464 kts 214°
2026-05-05 18:48 12.73862 108.17422 28829 ft 463 kts 214°
2026-05-05 18:48 12.71206 108.15544 29176 ft 463 kts 214°
2026-05-05 18:48 12.68508 108.13808 29506 ft 463 kts 207°
2026-05-05 18:48 12.65505 108.12615 29814 ft 463 kts 194°
2026-05-05 18:49 12.62322 108.12133 29928 ft 463 kts 183°
2026-05-05 18:49 12.59096 108.12055 29933 ft 463 kts 180°
2026-05-05 18:49 12.52650 108.12002 29914 ft 462 kts 181°
2026-05-05 18:50 12.46189 108.11888 29906 ft 465 kts 180°
2026-05-05 18:50 12.39758 108.11762 29917 ft 465 kts 180°
2026-05-05 18:51 12.33276 108.11631 29914 ft 465 kts 180°
2026-05-05 18:51 12.26792 108.11499 29924 ft 465 kts 180°
2026-05-05 18:52 12.20301 108.11370 29926 ft 465 kts 180°
2026-05-05 18:52 12.13864 108.11245 29936 ft 463 kts 180°
2026-05-05 18:53 12.07434 108.11115 29938 ft 461 kts 180°
2026-05-05 18:53 12.01002 108.10987 29941 ft 461 kts 180°
2026-05-05 18:54 11.94596 108.10726 29934 ft 462 kts 187°
2026-05-05 18:54 11.91478 108.09917 29933 ft 463 kts 200°
2026-05-05 18:54 11.88640 108.08413 29940 ft 465 kts 213°
2026-05-05 18:55 11.83504 108.04363 29942 ft 465 kts 218°
2026-05-05 18:55 11.78461 108.00230 29930 ft 463 kts 218°
2026-05-05 18:56 11.73396 107.96183 29567 ft 460 kts 217°
2026-05-05 18:56 11.70875 107.94178 28899 ft 459 kts 217°
2026-05-05 18:56 11.68359 107.92173 28190 ft 457 kts 217°
2026-05-05 18:57 11.65890 107.90205 27526 ft 455 kts 217°
2026-05-05 18:57 11.63398 107.88221 26850 ft 453 kts 217°
2026-05-05 18:57 11.60899 107.86233 26171 ft 451 kts 217°
2026-05-05 18:57 11.58432 107.84263 25513 ft 449 kts 217°
2026-05-05 18:58 11.56009 107.82331 24881 ft 446 kts 217°
2026-05-05 18:58 11.53568 107.80392 24216 ft 443 kts 217°
2026-05-05 18:58 11.51145 107.78468 23565 ft 439 kts 217°
2026-05-05 18:58 11.48745 107.76555 22822 ft 435 kts 217°
2026-05-05 18:59 11.46364 107.74656 22104 ft 431 kts 217°
2026-05-05 18:59 11.44013 107.72778 21411 ft 427 kts 217°
2026-05-05 18:59 11.41686 107.70922 20754 ft 422 kts 217°
2026-05-05 18:59 11.39380 107.69089 20145 ft 418 kts 217°
2026-05-05 19:00 11.37129 107.67301 19563 ft 413 kts 217°
2026-05-05 19:00 11.34877 107.65509 18991 ft 408 kts 217°
2026-05-05 19:00 11.32650 107.63737 18458 ft 403 kts 217°
2026-05-05 19:00 11.30450 107.61986 17903 ft 399 kts 217°
2026-05-05 19:01 11.28269 107.60260 17322 ft 394 kts 217°
2026-05-05 19:01 11.26112 107.58549 16777 ft 393 kts 217°
2026-05-05 19:01 11.23953 107.56837 16240 ft 393 kts 217°
2026-05-05 19:01 11.21797 107.55123 15715 ft 393 kts 217°
2026-05-05 19:02 11.19640 107.53407 15201 ft 393 kts 217°
2026-05-05 19:02 11.17506 107.51713 14702 ft 392 kts 217°
2026-05-05 19:02 11.15348 107.50002 14174 ft 393 kts 217°
2026-05-05 19:02 11.13197 107.48290 13646 ft 390 kts 217°
2026-05-05 19:03 11.11068 107.46600 13083 ft 384 kts 217°
2026-05-05 19:03 11.08976 107.44944 12557 ft 378 kts 217°
2026-05-05 19:03 11.06913 107.43306 12041 ft 373 kts 217°
2026-05-05 19:03 11.04878 107.41690 11517 ft 368 kts 217°
2026-05-05 19:04 11.02908 107.40092 11078 ft 363 kts 221°
2026-05-05 19:04 11.01359 107.38123 10858 ft 350 kts 240°
2026-05-05 19:04 11.00463 107.35877 10694 ft 336 kts 253°
2026-05-05 19:04 10.99824 107.33643 10527 ft 322 kts 254°
2026-05-05 19:05 10.99219 107.31488 10369 ft 309 kts 254°
2026-05-05 19:05 10.98625 107.29417 10146 ft 303 kts 253°
2026-05-05 19:05 10.98030 107.27379 9827 ft 298 kts 253°
2026-05-05 19:05 10.97440 107.25386 9418 ft 296 kts 253°
2026-05-05 19:06 10.96844 107.23375 9045 ft 296 kts 253°
2026-05-05 19:06 10.96248 107.21365 8690 ft 295 kts 253°
2026-05-05 19:06 10.95651 107.19362 8335 ft 295 kts 253°
2026-05-05 19:06 10.95059 107.17382 7980 ft 296 kts 253°
2026-05-05 19:07 10.94462 107.15376 7635 ft 296 kts 253°
2026-05-05 19:07 10.93865 107.13380 7267 ft 293 kts 253°
2026-05-05 19:07 10.93275 107.11403 6881 ft 290 kts 253°
2026-05-05 19:07 10.92689 107.09442 6517 ft 288 kts 253°
2026-05-05 19:08 10.92109 107.07502 6135 ft 285 kts 253°
2026-05-05 19:08 10.91536 107.05583 5745 ft 283 kts 253°
2026-05-05 19:08 10.90965 107.03671 5379 ft 281 kts 254°
2026-05-05 19:08 10.90395 107.01771 5033 ft 281 kts 254°
2026-05-05 19:09 10.89825 106.99869 4682 ft 281 kts 254°
2026-05-05 19:09 10.89258 106.97970 4296 ft 279 kts 254°
2026-05-05 19:09 10.88698 106.96099 4024 ft 272 kts 254°
2026-05-05 19:09 10.88153 106.94323 3965 ft 257 kts 254°
2026-05-05 19:10 10.87635 106.92640 3961 ft 246 kts 254°
2026-05-05 19:10 10.87149 106.90965 3974 ft 245 kts 259°
2026-05-05 19:10 10.87100 106.89258 3865 ft 242 kts 279°
2026-05-05 19:10 10.87405 106.87572 3534 ft 240 kts 284°
2026-05-05 19:11 10.87786 106.85935 3190 ft 239 kts 284°
2026-05-05 19:11 10.88162 106.84281 2833 ft 239 kts 282°
2026-05-05 19:11 10.88307 106.82600 2457 ft 240 kts 267°
2026-05-05 19:11 10.88035 106.80931 2099 ft 240 kts 253°
2026-05-05 19:12 10.87426 106.79353 1985 ft 239 kts 242°
2026-05-05 19:12 10.86827 106.77823 1959 ft 229 kts 248°
2026-05-05 19:12 10.86276 106.76388 1978 ft 203 kts 249°
2026-05-05 19:12 10.85789 106.75101 1841 ft 188 kts 248°
2026-05-05 19:13 10.85338 106.73901 1639 ft 175 kts 248°
2026-05-05 19:13 10.84924 106.72799 1398 ft 155 kts 248°
2026-05-05 19:13 10.84551 106.71807 1176 ft 151 kts 247°
2026-05-05 19:13 10.84175 106.70807 973 ft 151 kts 247°
2026-05-05 19:14 10.83806 106.69822 783 ft 149 kts 248°
2026-05-05 19:14 10.83439 106.68842 615 ft 150 kts 249°
2026-05-05 19:14 10.83090 106.67872 456 ft 146 kts 249°
2026-05-05 19:14 10.82704 106.66917 241 ft 147 kts 250°
2026-05-05 19:15 10.82346 106.65949 49 ft 143 kts 248°
2026-05-05 19:15 10.82021 106.65093 39 ft 105 kts 248°
2026-05-05 19:15 10.81834 106.64597 41 ft 47 kts 246°
2026-05-05 19:15 10.81730 106.64397 41 ft 25 kts 223°
2026-05-05 19:16 10.81588 106.64292 40 ft 26 kts 197°
2026-05-05 19:16 10.81429 106.64337 43 ft 25 kts 161°
2026-05-05 19:16 10.81267 106.64399 41 ft 21 kts 138°
2026-05-05 19:16 10.81279 106.64530 45 ft 21 kts 70°
2026-05-05 19:17 10.81332 106.64674 43 ft 22 kts 69°
2026-05-05 19:17 10.81390 106.64826 45 ft 24 kts 69°
2026-05-05 19:17 10.81444 106.64973 47 ft 14 kts 83°
2026-05-05 19:17 10.81372 106.65034 44 ft 15 kts 158°
2026-05-05 19:18 10.81270 106.65073 43 ft 16 kts 157°
2026-05-05 19:18 10.81275 106.65172 41 ft 16 kts 71°
2026-05-05 19:18 10.81315 106.65282 43 ft 17 kts 69°
2026-05-05 19:18 10.81357 106.65395 43 ft 18 kts 69°
2026-05-05 19:19 10.81402 106.65514 42 ft 18 kts 69°
2026-05-05 19:19 10.81446 106.65631 42 ft 16 kts 69°
2026-05-05 19:19 10.81477 106.65672 42 ft 2 kts 344°
2026-05-05 19:19 10.81492 106.65671 42 ft 3 kts 350°
2026-05-05 19:20 10.81511 106.65665 42 ft 3 kts 341°
2026-05-05 19:20 10.81519 106.65662 42 ft 0 kts 341°